This is the latest recevied weather packets stored in our database for station/object KN6DHD. If no packets are shown the sender has not sent any weather packets the latest 10 day(s).
| Time | Temp. | Humidity | Pressure | Rain* | Wind** | Luminosity | Snow |
|---|---|---|---|---|---|---|---|
| 1777943616 | 13.89° C | 95% | 1015.1 hPa | 0 mm | - | 40 W/m² | - |
| 1777943312 | 13.89° C | 94% | 1015.1 hPa | 0 mm | - | 39 W/m² | - |
| 1777943008 | 13.89° C | 94% | 1015.4 hPa | 0 mm | - | 39 W/m² | - |
| 1777942704 | 13.89° C | 93% | 1015.5 hPa | 0 mm | - | 31 W/m² | - |
| 1777942401 | 14.44° C | 92% | 1015.7 hPa | 0 mm | - | 28 W/m² | - |
| 1777942099 | 15° C | 91% | 1015.7 hPa | 1.78 mm | - | 23 W/m² | - |
| 1777941795 | 15.56° C | 89% | 1015.6 hPa | 1.78 mm | - | 17 W/m² | - |
| 1777941492 | 15.56° C | 86% | 1015.4 hPa | 0 mm | - | 17 W/m² | - |
| 1777941189 | 15.56° C | 85% | 1015.4 hPa | 0 mm | - | 19 W/m² | - |
| 1777940885 | 15.56° C | 85% | 1015.4 hPa | 0 mm | - | 21 W/m² | - |
| 1777940583 | 15.56° C | 86% | 1015.3 hPa | 0 mm | - | 27 W/m² | - |
| 1777940281 | 15.56° C | 86% | 1015.4 hPa | 0 mm | - | 45 W/m² | - |
| 1777939978 | 15.56° C | 86% | 1015.6 hPa | 0 mm | - | 49 W/m² | - |
| 1777939675 | 15.56° C | 87% | 1015.4 hPa | 0 mm | - | 41 W/m² | - |
| 1777939372 | 15.56° C | 87% | 1015.3 hPa | 0 mm | - | 42 W/m² | - |
| 1777939069 | 16.11° C | 86% | 1015.4 hPa | 0 mm | - | 40 W/m² | - |
| 1777938765 | 16.11° C | 86% | 1015.3 hPa | 0 mm | - | 54 W/m² | - |
| 1777938462 | 16.11° C | 85% | 1015.2 hPa | 0 mm | - | 62 W/m² | - |
| 1777938160 | 16.11° C | 84% | 1015.3 hPa | 0 mm | - | 67 W/m² | - |
| 1777937856 | 16.11° C | 82% | 1015.3 hPa | 0 mm | - | 41 W/m² | - |
| 1777937552 | 16.67° C | 81% | 1015.3 hPa | 0 mm | - | 36 W/m² | - |
| 1777937249 | 16.67° C | 80% | 1015.5 hPa | 0 mm | - | 38 W/m² | - |
| 1777936946 | 16.67° C | 79% | 1015.2 hPa | 0 mm | - | 57 W/m² | - |
| 1777936643 | 16.67° C | 79% | 1015.3 hPa | 0 mm | - | 63 W/m² | - |
| 1777936339 | 16.67° C | 80% | 1015.5 hPa | 0 mm | - | 80 W/m² | - |
* Rain latest hour (hover to see other rain measurements)
** Current wind speed in m/s (hover to see current wind gust speed)